Regional Weather Roundup
Issued by NWS

Home | Current Version | Previous Version | Text Only | Print | Product List | Glossary On
Versions: 1 2 3 4 5 6 7 8 9 10 11 12 13 14 15 16 17 18 19 20 21 22 23 24 25 26 27 28 29 30 31 32 33 34 35 36 37 38 39 40 41 42 43 44 45 46 47 48 49 50
813
ASUS45 KTFX 091210
RWRMT
MONTANA REGIONAL WEATHER ROUNDUP
NATIONAL WEATHER SERVICE GREAT FALLS MT
500 AM MST FRI DEC 09 2016

NOTE: "FAIR" INDICATES FEW OR NO CLOUDS BELOW 12000 FEET WITH NO
SIGNIFICANT WEATHER AND/OR OBSTRUCTIONS TO VISIBILITY.

MTZ001>007-043-091300-
WEST OF THE DIVIDE

CITY           SKY/WX    TMP DP  RH WIND       PRES   REMARKS
KALISPELL      CLOUDY     4  -7  60 N16       30.23R WCI -15
MISSOULA       LGT SNOW  13   7  77 E10       30.17S WCI   0
BUTTE          LGT SNOW   6   1  80 S7        30.01S WCI  -6
MULLAN PASS    LGT SNOW   2  -2  83 S12       29.89S FOG     WCI -15
ANACONDA         N/A      3   0  85 CALM      30.04F
DEER LODGE       N/A      3  -2  78 NW5       30.09S
EUREKA           N/A     -4  -9  77 SE5       30.32R
HAMILTON         N/A     12   9  85 CALM      30.11F
LIBBY            N/A      9   3  78 CALM      30.26R
PLAINS           N/A     13   4  67 CALM      30.22R
RONAN            N/A     11   5  76 N8        30.18F WCI  -1
$$

MTZ008-052>055-091300-
SOUTHWEST MONTANA

CITY           SKY/WX    TMP DP  RH WIND       PRES   REMARKS
BOZEMAN        LGT SNOW   4   0  83 W5        30.16R FOG
DILLON         CLOUDY     5   0  79 CALM      30.05S
W YELLOWSTONE  LGT SNOW   9   5  85 N3        30.03R
ENNIS          CLOUDY     3   0  85 CALM      30.09S
THREE FORKS      N/A      3 -38  13 CALM      30.14S
TWIN BRIDGES     N/A      5  -6  60 S8        30.06F WCI  -8
$$

MTZ009-010-012-014-046-048-049-054-091300-
EAST SLOPES AND CENTRAL MONTANA

CITY           SKY/WX    TMP DP  RH WIND       PRES   REMARKS
CUT BANK       CLOUDY    -5  -8  87 SE5       30.28R
GREAT FALLS    LGT SNOW  -3  -7  82 N3        30.29F
MALMSTROM AFB  LGT SNOW  -2  -6  84 NE3       30.32F
HELENA         LGT SNOW   0  -5  79 NW6       30.23F WCI -12
AUGUSTA        LGT SNOW  -5  -9  84 E3        30.19F
BOWMANS CRNR   LGT SNOW  -6  -9  85 E5        30.19F
CHOTEAU          N/A     -4  -8  84 MISG      30.28S
CONRAD           N/A     -3  -7  83 N1        30.28S
FAIRFIELD      SNOWSHWR  -4  -9  80 E2        30.26F
POWER          FLURRIES  -5  -9  82 N2        30.27F
RAYNESFORD     LGT SNOW  -4  -8  82 W3        30.24F
ULM            LGT SNOW  -3  -8  80 N7        30.30S WCI -16
$$

MTZ011-013-016-021-045-047-050-051-091300-
NORTH CENTRAL MONTANA

CITY           SKY/WX    TMP DP  RH WIND       PRES   REMARKS
HAVRE          CLOUDY     1  -4  79 E13       30.42F WCI -17
LEWISTOWN      LGT SNOW   0  -5  79 E5        30.21F
N BAR RANCH    LGT SNOW  -2  -8  78 E6        30.22S WCI -14
CHINOOK          N/A      0  -6  78 E7        30.47S WCI -13
DENTON         LGT SNOW  -3  -6  84 MISG      30.25F
GEYSER         LGT SNOW  -2  -6  84 N1        30.23F
GRASS RANGE    LGT SNOW  -3  -6  87 E5        30.24S
JUDITH GAP     LGT SNOW   0  -4  82 MISG      30.15F
ROY            FLURRIES  -3  -6  85 MISG      30.29S
STANFORD       LGT SNOW  -4  -7  87 N3        30.19F
WINIFRED       FLURRIES  -3  -6  87 MISG      30.27F
$$

MTZ017>020-022>027-061-062-091300-
NORTHEAST MONTANA

CITY           SKY/WX    TMP DP  RH WIND       PRES   REMARKS
GLASGOW        CLOUDY    -4  -9  79 SE8       30.49S WCI -19
JORDAN           N/A     -9 -14  78 CALM      30.44R
WOLF POINT     CLOUDY   -13 -20  71 E3        30.55F
PLENTYWOOD       N/A     -9 -13  84 CALM      30.50F
POPLAR           N/A    -11 -18  70 CALM      30.56F
SCOBEY           N/A     -5 -15  61 CALM      30.43S
$$

MTZ028>42-056>058-091300-
SOUTHCENTRAL AND SOUTHEAST MONTANA

CITY           SKY/WX    TMP DP  RH WIND       PRES   REMARKS
BAKER          CLOUDY   -10 -15  78 SE5       30.39R
BILLINGS       LGT SNOW   2  -3  80 NE8       30.26F WCI -12
LIVINGSTON     LGT SNOW   4  -1  80 E7        30.15R VSB 1   WCI  -8
MILES CITY     CLOUDY    -6 -11  79 NE10      30.41F WCI -24
BIG TIMBER     CLOUDY     3   0  85 E6        30.19S FOG     WCI  -8
FORSYTH          N/A     -4  -9  77 NE3       30.38F
HARLOWTON      FLURRIES   0  -3  85 SE5       30.19S
LAUREL           N/A      4  -5  66 N3        30.21F
ROUNDUP          N/A     -2 -11  65 N5        30.19S
$$

REGIONAL REPORTS...DAKOTAS

CITY           SKY/WX    TMP DP  RH WIND       PRES   REMARKS
WILLISTON      CLOUDY   -16 -21  78 CALM      30.55F
MINOT          CLOUDY    -9 -13  83 W9        30.53F WCI -26
DICKINSON      CLOUDY   -19 -22  86 W5        30.42S FOG
BEACH          HAZE     -18 -22  83 S3        30.46S VSB 1/4
CROSBY           N/A    -15 -20  76 NW10      30.56F WCI -35
TIOGA          MOCLDY   -17 -20  83 W6        30.50F WCI -31
WATFORD CITY     N/A    -20 -27  69 CALM      30.53S
BISMARCK       CLEAR    -12 -16  82 CALM      30.56S
GRAND FORKS    CLOUDY     4  -3  73 W12       30.57R WCI -12
FARGO          CLOUDY     8   1  73 W8        30.57S WCI  -4
BUFFALO SD       N/A     -7 -12  79 E6        30.28R WCI -20
RAPID CITY     CLOUDY    -1  -5  82 N10       30.32R WCI -17
$$

REGIONAL REPORTS...WYOMING/IDAHO/WASHINGTON

CITY           SKY/WX    TMP DP  RH WIND       PRES   REMARKS
GILLETTE       CLOUDY    -1  -5  82 NW3       30.16S
SHERIDAN       CLOUDY     4  -2  76 CALM      30.21F
BUFFALO WY     CLOUDY     0  -5  79 MISG      30.12R
CODY           FLURRIES  -1  -5  82 NE5       30.11S
YELLOWSTONE LA   N/A     11   9  92 CALM      29.99S
IDAHO FALLS    CLOUDY    20  16  84 CALM      30.13S
SALMON         CLOUDY    10   7  85 CALM      30.13F
BOISE          CLOUDY    26  23  88 N3        30.14F
SPOKANE        FLURRIES  17  12  80 NE8       30.12F WCI   7
$$

REGIONAL REPORTS...ALBERTA

CITY           SKY/WX    TMP DP  RH WIND       PRES   REMARKS
EDMONTON       CLEAR    -17 -24  70 SE2       30.50F
CALGARY        CRYSTALS  -8 -13  77 S8        30.29F WCI -23
LETHBRIDGE     CLOUDY    -6  -9  84 E3        30.38F
MEDICINE HAT   FLURRIES  -4  -9  77 NE6       30.49F WCI -16
WATERTON GATE    N/A    -22 -29  69 CALM        N/A
CARDSTON         N/A    -13 -20  70 SW6         N/A  WCI -27
ONEFOUR          N/A     -6  -9  84 E9          N/A  WCI -22
$$

REGIONAL REPORTS...SASKATCHEWAN

CITY           SKY/WX    TMP DP  RH WIND       PRES   REMARKS
SWIFT CURRENT  FLURRIES  -6  -9  84 N6        30.45F WCI -18
REGINA         CLEAR    -17 -22  76 W7        30.57S WCI -33
SASKATOON      CRYSTALS -13 -18  77 NW6       30.63F WCI -27
CYPRESS HILLS    N/A     -9 -15  77 S2          N/A
VAL MARIE        N/A    -11 -15  84 E2          N/A
ROCKGLEN         N/A     -6  -9  84 N2          N/A
ASSINIBOIA       N/A     -6 -11  77 SE5         N/A
$$




USA.gov is the U.S. government's official web portal to all federal, state and local government web resources and services.